H1 CPF 2 NER 2021 9 19 9 262 01 glonass128 H2 1106401 9128 37867 2021 9 19 0 0 0 2021 9 22 23 45 0 900 1 1 0 0 0 1 H9 10 0 59476 0.00000 0 -17150980.658 5577105.903 18102304.293 10 0 59476 900.00000 0 -15535375.405 3888075.308 19910903.717 10 0 59476 1800.00000 0 -13925844.056 1928586.126 21334789.114 10 0 59476 2700.00000 0 -12379872.779 -267309.881 22346384.357 10 0 59476 3600.00000 0 -10948794.754 -2654838.621 22926028.449 10 0 59476 4500.00000 0 -9675722.216 -5180106.042 23062357.123 10 0 59476 5400.00000 0 -8593835.737 -7782085.778 22752530.845 10 0 59476 6300.00000 0 -7725101.392 -10394912.772 22002304.357 10 0 59476 7200.00000 0 -7079469.096 -12950390.567 20825935.373 10 0 59476 8100.00000 0 -6654586.025 -15380610.875 19245932.616 10 0 59476 9000.00000 0 -6436038.049 -17620578.786 17292645.996 10 0 59476 9900.00000 0 -6398110.516 -19610735.729 15003704.639 10 0 59476 10800.00000 0 -6505038.048 -21299275.784 12423311.261 10 0 59476 11700.00000 0 -6712692.326 -22644158.413 9601404.387 10 0 59476 12600.00000 0 -6970638.075 -23614732.446 6592702.913 10 0 59476 13500.00000 0 -7224471.176 -24192901.751 3455650.271 10 0 59476 14400.00000 0 -7418340.115 -24373781.745 251278.124 10 0 59476 15300.00000 0 -7497543.290 -24165817.152 -2957988.138 10 0 59476 16200.00000 0 -7411090.624 -23590354.291 -6109558.020 10 0 59476 17100.00000 0 -7114118.709 -22680684.612 -9141913.369 10 0 59476 18000.00000 0 -6570054.418 -21480599.132 -11995828.534 10 0 59476 18900.00000 0 -5752432.425 -20042514.808 -14615547.403 10 0 59476 19800.00000 0 -4646286.725 -18425252.589 -16949892.208 10 0 59476 20700.00000 0 -3249054.761 -16691562.217 -18953280.403 10 0 59476 21600.00000 0 -1570953.797 -14905499.738 -20586628.166 10 0 59476 22500.00000 0 365187.850 -13129769.990 -21818121.740 10 0 59476 23400.00000 0 2524638.423 -11423147.575 -22623840.845 10 0 59476 24300.00000 0 4861979.658 -9838085.991 -22988221.951 10 0 59476 25200.00000 0 7322781.684 -8418616.001 -22904352.776 10 0 59476 26100.00000 0 9845664.935 -7198621.437 -22374093.081 10 0 59476 27000.00000 0 12364661.949 -6200563.905 -21408020.618 10 0 59476 27900.00000 0 14811779.491 -5434708.258 -20025204.635 10 0 59476 28800.00000 0 17119653.233 -4898879.132 -18252812.908 10 0 59476 29700.00000 0 19224183.897 -4578755.996 -16125561.463 10 0 59476 30600.00000 0 21067045.064 -4448691.363 -13685019.153 10 0 59476 31500.00000 0 22597958.574 -4473014.801 -10978782.032 10 0 59476 32400.00000 0 23776643.880 -4607765.101 -8059534.705 10 0 59476 33300.00000 0 24574361.657 -4802775.340 -4984017.797 10 0 59476 34200.00000 0 24974989.275 -5004021.222 -1811922.332 10 0 59476 35100.00000 0 24975585.542 -5156132.581 1395267.236 10 0 59476 36000.00000 0 24586423.431 -5204961.717 4575458.929 10 0 59476 36900.00000 0 23830491.587 -5100100.428 7667145.417 10 0 59476 37800.00000 0 22742487.243 -4797240.316 10610580.140 10 0 59476 38700.00000 0 21367343.866 -4260277.875 13348915.783 10 0 59476 39600.00000 0 19758355.670 -3463076.823 15829284.395 10 0 59476 40500.00000 0 17974977.174 -2390814.503 18003799.958 10 0 59476 41400.00000 0 16080388.837 -1040856.306 19830465.813 10 0 59476 42300.00000 0 14138928.942 576878.542 21273971.082 10 0 59476 43200.00000 0 12213496.925 2440075.870 22306362.308 10 0 59476 44100.00000 0 10363034.250 4514705.030 22907578.604 10 0 59476 45000.00000 0 8640185.765 6756190.685 23065840.712 10 0 59476 45900.00000 0 7089237.061 9111031.880 22777886.738 10 0 59476 46800.00000 0 5744412.392 11518804.056 22049049.584 10 0 59476 47700.00000 0 4628603.306 13914463.802 20893173.577 10 0 59476 48600.00000 0 3752580.843 16230863.455 19332370.354 10 0 59476 49500.00000 0 3114724.645 18401373.442 17396616.672 10 0 59476 50400.00000 0 2701281.311 20362504.878 15123199.693 10 0 59476 51300.00000 0 2487142.445 22056424.111 12556018.123 10 0 59476 52200.00000 0 2437111.104 23433254.334 9744750.544 10 0 59476 53100.00000 0 2507604.667 24453067.146 6743905.309 10 0 59476 54000.00000 0 2648723.138 25087479.233 3611769.132 10 0 59476 54900.00000 0 2806595.833 25320785.130 409274.177 10 0 59476 55800.00000 0 2925906.763 25150576.241 -2801194.155 10 0 59476 56700.00000 0 2952490.569 24587817.934 -5957024.773 10 0 59476 57600.00000 0 2835887.121 23656379.624 -8996618.485 10 0 59476 58500.00000 0 2531744.046 22392036.384 -11860609.596 10 0 59476 59400.00000 0 2003962.599 20840983.626 -14493045.616 10 0 59476 60300.00000 0 1226493.038 19057927.569 -16842499.953 10 0 59476 61200.00000 0 184700.851 17103832.807 -18863093.796 10 0 59476 62100.00000 0 -1123756.292 15043423.135 -20515405.626 10 0 59476 63000.00000 0 -2688579.667 12942542.351 -21767249.418 10 0 59476 63900.00000 0 -4487024.540 10865487.620 -22594305.611 10 0 59476 64800.00000 0 -6484631.376 8872428.718 -22980592.442 10 0 59476 65700.00000 0 -8636462.444 7017022.287 -22918768.850 10 0 59476 66600.00000 0 -10888791.249 5344321.364 -22410263.818 10 0 59476 67500.00000 0 -13181173.160 3889067.204 -21465230.844 10 0 59476 68400.00000 0 -15448809.572 2674433.565 -20102329.790 10 0 59476 69300.00000 0 -17625105.762 1711274.054 -18348341.890 10 0 59476 70200.00000 0 -19644314.854 997901.361 -16237626.957 10 0 59476 71100.00000 0 -21444157.195 520404.587 -13811434.801 10 0 59476 72000.00000 0 -22968305.803 253488.143 -11117085.661 10 0 59476 72900.00000 0 -24168634.840 161793.842 -8207036.720 10 0 59476 73800.00000 0 -25007138.330 201647.723 -5137853.773 10 0 59476 74700.00000 0 -25457440.538 323155.817 -1969108.740 10 0 59476 75600.00000 0 -25505836.844 472558.829 1237775.260 10 0 59476 76500.00000 0 -25151823.605 594745.553 4420708.897 10 0 59476 77400.00000 0 -24408096.873 635818.767 7518128.986 10 0 59476 78300.00000 0 -23300021.732 545605.779 10470175.907 10 0 59476 79200.00000 0 -21864595.737 280008.613 13219834.393 10 0 59476 80100.00000 0 -20148950.434 -196904.078 15714016.987 10 0 59476 81000.00000 0 -18208453.561 -911150.303 17904570.836 10 0 59476 81900.00000 0 -16104490.374 -1877505.828 19749190.206 10 0 59476 82800.00000 0 -13902015.291 -3098648.412 21212218.717 10 0 59476 83700.00000 0 -11666973.989 -4564811.289 22265327.454 10 0 59476 84600.00000 0 -9463701.015 -6253961.394 22888057.113 10 0 59476 85500.00000 0 -7352399.002 -8132496.516 23068214.491 10 0 59477 0.00000 0 -5386802.085 -10156434.628 22802115.966 10 0 59477 900.00000 0 -3612119.038 -12273048.922 22094672.759 10 0 59477 1800.00000 0 -2063339.963 -14422882.726 20959315.640 10 0 59477 2700.00000 0 -763977.492 -16542064.382 19417758.567 10 0 59477 3600.00000 0 274706.547 -18564827.616 17499604.192 10 0 59477 4500.00000 0 1053954.888 -20426134.697 15241796.408 10 0 59477 5400.00000 0 1587238.036 -22064294.204 12687928.271 10 0 59477 6300.00000 0 1899457.148 -23423464.506 9887416.470 10 0 59477 7200.00000 0 2025658.826 -24455937.636 6894556.592 10 0 59477 8100.00000 0 2009315.020 -25124106.592 3767476.186 10 0 59477 9000.00000 0 1900240.078 -25402031.534 567005.285 10 0 59477 9900.00000 0 1752233.081 -25276536.658 -2644513.472 10 0 59477 10800.00000 0 1620546.069 -24747789.174 -5804451.269 10 0 59477 11700.00000 0 1559286.961 -23829333.695 -8851130.832 10 0 59477 12600.00000 0 1618869.333 -22547578.777 -11725049.414 10 0 59477 13500.00000 0 1843619.767 -20940756.039 -14370061.131 10 0 59477 14400.00000 0 2269646.896 -19057395.252 -16734493.471 10 0 59477 15300.00000 0 2923065.118 -16954379.858 -18772174.098 10 0 59477 16200.00000 0 3818650.561 -14694665.639 -20443346.276 10 0 59477 17100.00000 0 4958988.058 -12344759.659 -21715453.862 10 0 59477 18000.00000 0 6334146.462 -9972066.888 -22563779.755 10 0 59477 18900.00000 0 7921896.673 -7642217.165 -22971925.273 10 0 59477 19800.00000 0 9688463.301 -5416485.519 -22932121.442 10 0 59477 20700.00000 0 11589777.841 -3349414.422 -22445366.910 10 0 59477 21600.00000 0 13573179.903 -1486737.208 -21521390.967 10 0 59477 22500.00000 0 15579494.107 136311.484 -20178443.759 10 0 59477 23400.00000 0 17545394.422 1496229.271 -18442919.289 10 0 59477 24300.00000 0 19405956.033 2581974.454 -16348820.093 10 0 59477 25200.00000 0 21097287.228 3395161.785 -13937075.489 10 0 59477 26100.00000 0 22559130.907 3949720.591 -11254728.031 10 0 59477 27000.00000 0 23737327.072 4271032.985 -8354005.224 10 0 59477 27900.00000 0 24586034.028 4394591.548 -5291295.383 10 0 59477 28800.00000 0 25069616.485 4364235.640 -2126048.350 10 0 59477 29700.00000 0 25164123.090 4230042.805 1080377.303 10 0 59477 30600.00000 0 24858293.351 4045965.586 4265898.239 10 0 59477 31500.00000 0 24154053.539 3867314.023 7368898.783 10 0 59477 32400.00000 0 23066482.520 3748190.038 10329409.526 10 0 59477 33300.00000 0 21623250.133 3738981.247 13090250.367 10 0 59477 34200.00000 0 19863552.395 3884018.769 15598117.208 10 0 59477 35100.00000 0 17836588.056 4219496.459 17804592.973 10 0 59477 36000.00000 0 15599639.478 4771737.954 19667065.152 10 0 59477 36900.00000 0 13215836.569 5555883.479 21149533.851 10 0 59477 37800.00000 0 10751695.053 6575051.215 22223296.343 10 0 59477 38700.00000 0 8274529.175 7820008.740 22867496.199 10 0 59477 39600.00000 0 5849844.028 9269369.388 23069527.168 10 0 59477 40500.00000 0 3538813.373 10890307.127 22825284.332 10 0 59477 41400.00000 0 1395945.572 12639762.599 22139257.318 10 0 59477 42300.00000 0 -532967.033 14466092.723 21024462.827 10 0 59477 43200.00000 0 -2212531.156 16311098.042 19502216.237 10 0 59477 44100.00000 0 -3618998.447 18112346.027 17601744.730 10 0 59477 45000.00000 0 -4741022.017 19805695.656 15359647.172 10 0 59477 45900.00000 0 -5579891.360 21327919.467 12819208.874 10 0 59477 46800.00000 0 -6149234.781 22619314.243 10029582.266 10 0 59477 47700.00000 0 -6474200.588 23626190.815 7044847.583 10 0 59477 48600.00000 0 -6590150.418 24303137.558 3922970.455 10 0 59477 49500.00000 0 -6540919.047 24614960.700 724675.920 10 0 59477 50400.00000 0 -6376713.881 24538217.497 -2487739.080 10 0 59477 51300.00000 0 -6151743.466 24062275.085 -5651630.946 10 0 59477 52200.00000 0 -5921676.510 23189847.800 -8705247.202 10 0 59477 53100.00000 0 -5741040.860 21936987.986 -11588950.797 10 0 59477 54000.00000 0 -5660674.955 20332528.903 -14246405.017 10 0 59477 54900.00000 0 -5725342.322 18417002.079 -16625693.765 10 0 59477 55800.00000 0 -5971612.794 16241074.336 -18680353.264 10 0 59477 56700.00000 0 -6426102.564 13863570.556 -20370293.402 10 0 59477 57600.00000 0 -7104149.573 11349166.102 -21662589.493 10 0 59477 58500.00000 0 -8008981.629 8765847.003 -22532128.228 10 0 59477 59400.00000 0 -9131413.197 6182245.667 -22962095.066 10 0 59477 60300.00000 0 -10450083.845 3664964.743 -22944293.878 10 0 59477 61200.00000 0 -11932227.845 1276001.916 -22479293.404 10 0 59477 62100.00000 0 -13534941.711 -929616.653 -21576398.777 10 0 59477 63000.00000 0 -15206895.249 -2905895.984 -20253450.073 10 0 59477 63900.00000 0 -16890412.940 -4617540.234 -18536453.295 10 0 59477 64800.00000 0 -18523837.102 -6041161.431 -16459052.553 10 0 59477 65700.00000 0 -20044072.721 -7165981.137 -14061855.158 10 0 59477 66600.00000 0 -21389206.526 -7993998.765 -11391624.193 10 0 59477 67500.00000 0 -22501090.366 -8539622.941 -8500355.424 10 0 59477 68400.00000 0 -23327780.825 -8828784.693 -5444257.446 10 0 59477 69300.00000 0 -23825733.594 -8897572.802 -2282655.610 10 0 59477 70200.00000 0 -23961661.762 -8790451.279 923158.629 10 0 59477 71100.00000 0 -23713981.622 -8558135.984 4111110.629 10 0 59477 72000.00000 0 -23073786.937 -8255220.963 7219535.073 10 0 59477 72900.00000 0 -22045312.414 -7937654.985 10188355.698 10 0 59477 73800.00000 0 -20645868.166 -7660174.318 12960230.540 10 0 59477 74700.00000 0 -18905248.715 -7473799.035 15481641.817 10 0 59477 75600.00000 0 -16864641.430 -7423497.062 17703911.043 10 0 59477 76500.00000 0 -14575079.413 -7546112.893 19584121.543 10 0 59477 77400.00000 0 -12095502.230 -7868646.800 21085932.206 10 0 59477 78300.00000 0 -9490503.379 -8406955.956 22180268.424 10 0 59477 79200.00000 0 -6827855.889 -9164931.689 22845878.147 10 0 59477 80100.00000 0 -4175916.330 -10134187.741 23069743.142 10 0 59477 81000.00000 0 -1601012.372 -11294273.805 22847337.843 10 0 59477 81900.00000 0 835080.183 -12613407.269 22182730.468 10 0 59477 82800.00000 0 3077468.137 -14049694.999 21088523.496 10 0 59477 83700.00000 0 5080184.146 -15552796.837 19585633.160 10 0 59477 84600.00000 0 6807858.425 -17065964.035 17702910.263 10 0 59477 85500.00000 0 8236949.370 -18528369.887 15476607.373 10 0 59478 0.00000 0 9356481.430 -19877636.958 12949700.493 10 0 59478 900.00000 0 10168258.342 -21052456.175 10171075.692 10 0 59478 1800.00000 0 10686542.054 -21995188.597 7194595.623 10 0 59478 2700.00000 0 10937208.754 -22654339.066 4078061.400 10 0 59478 3600.00000 0 10956417.680 -22986797.426 882090.269 10 0 59478 4500.00000 0 10788847.414 -22959749.773 -2331069.489 10 0 59478 5400.00000 0 10485574.666 -22552177.068 -5498762.526 10 0 59478 6300.00000 0 10101685.848 -21755874.932 -8559164.221 10 0 59478 7200.00000 0 9693723.970 -20575948.958 -11452506.243 10 0 59478 8100.00000 0 9317080.947 -19030762.353 -14122263.979 10 0 59478 9000.00000 0 9023448.101 -17151336.378 -16516280.537 10 0 59478 9900.00000 0 8858435.339 -14980227.869 -18587803.287 10 0 59478 10800.00000 0 8859462.157 -12569930.790 -20296411.043 10 0 59478 11700.00000 0 9054011.775 -9980869.295 -21608812.548 10 0 59478 12600.00000 0 9458323.719 -7279067.465 -22499499.858 10 0 59478 13500.00000 0 10076580.986 -4533594.409 -22951243.709 10 0 59478 14400.00000 0 10900626.347 -1813892.810 -22955421.543 10 0 59478 15300.00000 0 11910219.326 812896.504 -22512172.483 10 0 59478 16200.00000 0 13073822.144 3284501.759 -21630377.416 10 0 59478 17100.00000 0 14349880.220 5545872.278 -20327465.895 10 0 59478 18000.00000 0 15688541.892 7551218.005 -18629055.143 10 0 59478 18900.00000 0 17033743.499 9265653.041 -16568429.726 10 0 59478 19800.00000 0 18325570.861 10666376.899 -14185873.503 10 0 59478 20700.00000 0 19502796.870 11743346.866 -11527868.290 10 0 59478 21600.00000 0 20505487.938 12499416.639 -8646176.000 10 0 59478 22500.00000 0 21277569.710 12949938.769 -5596823.061 10 0 59478 23400.00000 0 21769244.599 13121850.805 -2439007.618 10 0 59478 24300.00000 0 21939160.447 13052286.446 766048.918 10 0 59478 25200.00000 0 21756240.421 12786772.418 3956283.650 10 0 59478 26100.00000 0 21201098.706 12377088.577 7069984.684 10 0 59478 27000.00000 0 20266983.988 11878882.176 10046971.919 10 0 59478 27900.00000 0 18960212.368 11349136.837 12829744.424 10 0 59478 28800.00000 0 17300072.425 10843602.175 15364573.441 10 0 59478 29700.00000 0 15318206.658 10414291.115 17602521.588 10 0 59478 30600.00000 0 13057494.766 10107148.734 19500370.295 10 0 59478 31500.00000 0 10570484.310 9959989.086 21021439.259 10 0 59478 32400.00000 0 7917432.418 10000785.343 22136283.728 10 0 59478 33300.00000 0 5164037.650 10246384.127 22823257.454 10 0 59478 34200.00000 0 2378953.716 10701697.653 23068931.281 10 0 59478 35100.00000 0 -368814.584 11359408.006 22868359.655 10 0 59478 36000.00000 0 -3012527.906 12200197.126 22225189.573 10 0 59478 36900.00000 0 -5490235.140 13193494.723 21151608.999 10 0 59478 37800.00000 0 -7747099.646 14298715.147 19668134.237 10 0 59478 38700.00000 0 -9737433.588 15466934.014 17803238.434 10 0 59478 39600.00000 0 -11426356.147 16642936.801 15592826.164 10 0 59478 40500.00000 0 -12791006.439 17767555.732 13079561.932 10 0 59478 41400.00000 0 -13821259.772 18780198.396 10312063.355 10 0 59478 42300.00000 0 -14519916.044 19621462.576 7343972.826 10 0 59478 43200.00000 0 -14902351.185 20235727.155 4232924.294 10 0 59478 44100.00000 0 -14995645.051 20573608.844 1039424.446 10 0 59478 45000.00000 0 -14837221.601 20594179.304 -2174329.878 10 0 59478 45900.00000 0 -14473058.412 20266846.589 -5345674.389 10 0 59478 46800.00000 0 -13955541.429 19572818.653 -8412715.087 10 0 59478 47700.00000 0 -13341056.663 18506084.194 -11315555.046 10 0 59478 48600.00000 0 -12687422.314 17073866.803 -13997484.312 10 0 59478 49500.00000 0 -12051272.064 15296530.971 -16406107.569 10 0 59478 50400.00000 0 -11485502.597 13206942.381 -18494385.475 10 0 59478 51300.00000 0 -11036895.625 10849308.545 -20221567.669 10 0 59478 52200.00000 0 -10744017.075 8277548.279 -21553997.947 10 0 59478 53100.00000 0 -10635483.797 5553258.964 -22465775.070 10 0 59478 54000.00000 0 -10728672.011 2743367.559 -22939256.122 10 0 59478 54900.00000 0 -11028922.299 -82435.328 -22965392.851 10 0 59478 55800.00000 0 -11529274.307 -2854370.013 -22543895.184 10 0 59478 56700.00000 0 -12210741.347 -5505238.652 -21683219.812 10 0 59478 57600.00000 0 -13043111.910 -7972980.871 -20400385.452 10 0 59478 58500.00000 0 -13986242.573 -10203007.863 -18720619.838 10 0 59478 59400.00000 0 -14991786.054 -12150218.751 -16676846.934 10 0 59478 60300.00000 0 -16005279.932 -13780616.941 -14309025.766 10 0 59478 61200.00000 0 -16968506.643 -15072461.305 -11663355.222 10 0 59478 62100.00000 0 -17822024.341 -16016907.062 -8791361.477 10 0 59478 63000.00000 0 -18507761.563 -16618112.727 -5748886.719 10 0 59478 63900.00000 0 -18971566.410 -16892811.805 -2594999.651 10 0 59478 64800.00000 0 -19165603.454 -16869370.324 609150.722 10 0 59478 65700.00000 0 -19050498.404 -16586372.330 3801515.771 10 0 59478 66600.00000 0 -18597141.529 -16090794.799 6920339.674 10 0 59478 67500.00000 0 -17788075.300 -15435849.984 9905341.274 10 0 59478 68400.00000 0 -16618409.201 -14678586.398 12698863.512 10 0 59478 69300.00000 0 -15096224.220 -13877349.056 15246969.525 10 0 59478 70200.00000 0 -13242450.515 -13089204.829 17500465.817 10 0 59478 71100.00000 0 -11090223.105 -12367439.678 19415834.561 10 0 59478 72000.00000 0 -8683741.676 -11759231.236 20956058.651 10 0 59478 72900.00000 0 -6076680.396 -11303592.771 22091325.263 10 0 59478 73800.00000 0 -3330211.702 -11029673.353 22799595.656 10 0 59478 74700.00000 0 -510723.620 -10955484.573 23067031.071 10 0 59478 75600.00000 0 2312677.552 -11087106.897 22888266.861 10 0 59478 76500.00000 0 5070778.537 -11418409.337 22266529.317 10 0 59478 77400.00000 0 7696878.612 -11931295.377 21213592.008 10 0 59478 78300.00000 0 10129310.973 -12596466.594 19749571.048 10 0 59478 79200.00000 0 12313762.839 -13374674.165 17902561.296 10 0 59478 80100.00000 0 14205298.658 -14218408.089 15708118.304 10 0 59478 81000.00000 0 15770002.280 -15073955.372 13208593.719 10 0 59478 81900.00000 0 16986169.099 -15883742.453 10452334.736 10 0 59478 82800.00000 0 17844997.165 -16588864.381 7492761.301 10 0 59478 83700.00000 0 18350746.957 -17131694.453 4387337.548 10 0 59478 84600.00000 0 18520361.728 -17458463.625 1196456.650 10 0 59478 85500.00000 0 18382563.090 -17521699.293 -2017739.197 10 0 59479 0.00000 0 17976459.235 -17282418.257 -5192580.014 10 0 59479 900.00000 0 17349724.292 -16711978.001 -8266105.896 10 0 59479 1800.00000 0 16556426.179 -15793506.404 -11178294.548 10 0 59479 2700.00000 0 15654596.060 -14522844.297 -13872253.795 10 0 59479 3600.00000 0 14703643.642 -12908960.787 -16295352.821 10 0 59479 4500.00000 0 13761729.869 -10973820.189 -18400268.237 10 0 59479 5400.00000 0 12883210.152 -8751705.435 -20145922.857 10 0 59479 6300.00000 0 12116258.240 -6288025.464 -21498297.520 10 0 59479 7200.00000 0 11500772.751 -3637656.730 -22431099.294 10 0 59479 8100.00000 0 11066655.833 -862888.823 -22926272.758 10 0 59479 9000.00000 0 10832536.946 1968939.013 -22974344.688 10 0 59479 9900.00000 0 10804995.296 4788010.617 -22574596.074 10 0 59479 10800.00000 0 10978312.678 7524706.683 -21735059.267 10 0 59479 11700.00000 0 11334765.580 10112267.520 -20472341.589 10 0 59479 12600.00000 0 11845442.312 12489333.658 -18811280.375 10 0 59479 13500.00000 0 12471548.556 14602259.020 -16784437.712 10 0 59479 14400.00000 0 13166144.225 16407101.450 -14431446.187 10 0 59479 15300.00000 0 13876236.488 17871209.406 -11798219.829 10 0 59479 16200.00000 0 14545139.215 18974341.041 -8936046.819 10 0 59479 17100.00000 0 15114998.329 19709271.758 -5900582.577 10 0 59479 18000.00000 0 15529376.093 20081867.847 -2750763.589 10 0 59479 18900.00000 0 15735785.485 20110626.131 452336.508 10 0 59479 19800.00000 0 15688068.402 19825701.711 3646686.390 10 0 59479 20700.00000 0 15348518.476 19267466.813 6770489.367 10 0 59479 21600.00000 0 14689660.304 18484662.898 9763366.182 10 0 59479 22500.00000 0 13695611.419 17532224.466 12567506.484 10 0 59479 23400.00000 0 12362970.814 16468866.020 15128767.927 10 0 59479 24300.00000 0 10701197.275 15354532.848 17397703.325 10 0 59479 25200.00000 0 8732461.704 14247821.339 19330497.763 10 0 59479 26100.00000 0 6490978.959 13203475.361 20889799.243 10 0 59479 27000.00000 0 4021845.703 12270061.843 22045428.501 10 0 59479 27900.00000 0 1379430.602 11487921.103 22774955.625 10 0 59479 28800.00000 0 -1374618.661 10887476.392 23064133.205 10 0 59479 29700.00000 0 -4173671.746 10487972.437 22907178.070 10 0 59479 30600.00000 0 -6948623.131 10296695.529 22306895.910 10 0 59479 31500.00000 0 -9630509.493 10308708.288 21274645.527 10 0 59479 32400.00000 0 -12153130.959 10507111.281 19830141.978 10 0 59479 33300.00000 0 -14455569.355 10863822.207 18001100.472 10 0 59479 34200.00000 0 -16484499.927 11340841.914 15822725.737 10 0 59479 35100.00000 0 -18196200.764 11891956.114 13337054.377 10 0 59479 36000.00000 0 -19558175.817 12464803.031 10592160.700 10 0 59479 36900.00000 0 -20550322.666 13003221.217 7641239.550 10 0 59479 37800.00000 0 -21165594.735 13449779.179 4541582.488 10 0 59479 38700.00000 0 -21410128.580 13748379.769 1353466.382 10 0 59479 39600.00000 0 -21302829.261 13846828.223 -1861023.998 10 0 59479 40500.00000 0 -20874430.075 13699253.361 -5039215.864 10 0 59479 41400.00000 0 -20166065.551 13268276.975 -8119085.850 10 0 59479 42300.00000 0 -19227417.875 12526836.761 -11040489.007 10 0 59479 43200.00000 0 -18114515.681 11459582.654 -13746353.445 10 0 59479 44100.00000 0 -16887279.434 10063784.654 -16183815.161 10 0 59479 45000.00000 0 -15606918.842 8349711.403 -18305268.808 10 0 59479 45900.00000 0 -14333294.209 6340461.636 -20069312.175 10 0 59479 46800.00000 0 -13122355.046 4071254.362 -21441564.630 10 0 59479 47700.00000 0 -12023765.757 1588207.155 -22395342.678 10 0 59479 48600.00000 0 -11078819.702 -1053346.102 -22912179.172 10 0 59479 49500.00000 0 -10318730.079 -3790927.031 -22982176.322 10 0 59479 50400.00000 0 -9763369.494 -6557286.513 -22604186.239 10 0 59479 51300.00000 0 -9420510.309 -9282980.339 -21785816.620 10 0 59479 52200.00000 0 -9285596.207 -11899038.555 -20543262.740 10 0 59479 53100.00000 0 -9342052.475 -14339616.639 -18900970.552 10 0 59479 54000.00000 0 -9562119.529 -16544518.144 -16891139.005 10 0 59479 54900.00000 0 -9908172.034 -18461484.319 -14553072.733 10 0 59479 55800.00000 0 -10334465.645 -20048156.473 -11932399.210 10 0 59479 56700.00000 0 -10789235.644 -21273631.128 -9080166.797 10 0 59479 57600.00000 0 -11217057.313 -22119545.418 -6051842.213 10 0 59479 58500.00000 0 -11561367.477 -22580650.029 -2906227.739 10 0 59479 59400.00000 0 -11767040.375 -22664848.556 295680.414 10 0 59479 60300.00000 0 -11782909.334 -22392704.351 3491870.359 10 0 59479 61200.00000 0 -11564128.566 -21796437.890 6620506.749 10 0 59479 62100.00000 0 -11074276.535 -20918458.547 9621114.555 10 0 59479 63000.00000 0 -10287113.408 -19809493.509 12435732.533 10 0 59479 63900.00000 0 -9187919.787 -18526392.694 15010015.309 10 0 59479 64800.00000 0 -7774361.211 -17129701.368 17294264.446 10 0 59479 65700.00000 0 -6056842.452 -15681101.059 19244370.307 10 0 59479 66600.00000 0 -4058336.442 -14240824.460 20822648.215 10 0 59479 67500.00000 0 -1813693.877 -12865150.519 21998554.466 10 0 59479 68400.00000 0 631539.502 -11604082.539 22749269.699 10 0 59479 69300.00000 0 3222751.059 -10499304.513 23060139.276 10 0 59479 70200.00000 0 5898270.019 -9582499.666 22924962.585 10 0 59479 71100.00000 0 8591676.507 -8874100.570 22346125.469 10 0 59479 72000.00000 0 11234317.990 -8382522.875 21334572.371 10 0 59479 72900.00000 0 13757931.453 -8103915.175 19909617.343 10 0 59479 73800.00000 0 16097264.727 -8022436.492 18098595.646 10 0 59479 74700.00000 0 18192589.416 -8111051.337 15936360.505 10 0 59479 75600.00000 0 19992001.664 -8332810.626 13464632.401 10 0 59479 76500.00000 0 21453414.731 -8642566.360 10731211.241 10 0 59479 77400.00000 0 22546159.282 -8989049.230 7789064.809 10 0 59479 78300.00000 0 23252123.012 -9317222.394 4695309.693 10 0 59479 79200.00000 0 23566380.075 -9570812.139 1510103.655 10 0 59479 80100.00000 0 23497281.977 -9694907.761 -1704529.077 10 0 59479 81000.00000 0 23066004.480 -9638519.139 -4885916.183 10 0 59479 81900.00000 0 22305568.358 -9356981.528 -7971974.382 10 0 59479 82800.00000 0 21259374.664 -8814103.043 -10902439.428 10 0 59479 83700.00000 0 19979316.395 -7983960.938 -13620062.987 10 0 59479 84600.00000 0 18523546.972 -6852267.690 -16071750.945 10 0 59479 85500.00000 0 16954001.049 -5417246.481 -18209618.806 99